Regional Weather Roundup
Issued by NWS

Home | Current Version | Previous Version | Graphics & Text | Print | Product List | Glossary On
Versions: 1 2 3 4 5 6 7 8 9 10 11 12 13 14 15 16 17 18 19 20 21 22 23 24 25 26 27 28 29 30 31 32 33 34 35 36 37 38 39 40 41 42 43 44 45 46 47 48 49 50
561
ASUS43 KIND 201559
RWRIN

WEATHER ROUNDUP FOR INDIANA
NATIONAL WEATHER SERVICE INDIANAPOLIS IN
1100 AM EST MON FEB 20 2017

NOTE: "FAIR" INDICATES FEW OR NO CLOUDS BELOW 12,000 FEET WITH NO
SIGNIFICANT WEATHER AND/OR OBSTRUCTIONS TO VISIBILITY.

* - STATION DOES NOT REPORT WEATHER SUCH AS PRECIPITATION OR FOG.

+ - STATION NOT QUALITY CONTROLLED BY THE NATIONAL WEATHER SERVICE.
    USE DATA WITH CAUTION...ESPECIALLY DEWPOINT AND RELATIVE
    HUMIDITY OBSERVATIONS.

INZ001>003-010>013-019-020-201700-
NORTHWEST INDIANA

CITY           SKY/WX    TMP DP  RH WIND       PRES   REMARKS
GARY /AIRPORT/ PTSUNNY   57  46  67 SE12      30.15S
KNOX *+        CLOUDY    55  30  38 S12       30.17F
LA PORTE +     MOSUNNY   55  47  74 S9        30.17F
MICHIGAN CITY+ CLOUDY    55  45  67 SE6       30.17F

$$

LMZ046-743>745-201700-
SOUTHERN LAKE MICHIGAN

STATION/POSITION TIME  TEMP    WIND        PRES    WAVE
                       AIR SEA DIR/SP/G            HT
                 (UTC) (F)     (DEG/KT/KT) (MB)    (FT)
BURNS HARBOR     1540   55     140/ 10/ 16 1021.0F
MICHIGAN CITY    1530   54     130/ 16/ 17   N/A

$$

INZ004-005-014>016-021>024-201700-
NORTH CENTRAL INDIANA

CITY           SKY/WX    TMP DP  RH WIND       PRES   REMARKS
ELKHART        CLOUDY    55  43  62 SE7       30.19F
GOSHEN         CLOUDY    54  41  61 SE12      30.20S
SOUTH BEND     CLOUDY    56  46  69 SE10      30.19F
WARSAW +       CLOUDY    54  45  71 SE6       30.21S

$$

INZ006>009-017-018-025>027-201700-
NORTHEAST INDIANA

CITY           SKY/WX    TMP DP  RH WIND       PRES   REMARKS
ANGOLA *+      SUNNY     48  37  66 SE7       30.23R
FORT WAYNE     CLOUDY    52  44  74 E7        30.24R
KENDALLVILLE + CLOUDY    49  38  64 E9        30.23S

$$

INZ028-029-035-036-043>045-051>053-201700-
WEST CENTRAL INDIANA

CITY           SKY/WX    TMP DP  RH WIND       PRES   REMARKS
LAFAYETTE      CLOUDY    57  48  72 S12       30.18R
TERRE HAUTE    CLOUDY    52  49  89 SE8       30.18R

$$

INZ030>032-037>040-046>048-054>057-064-065-201700-
CENTRAL INDIANA

CITY           SKY/WX    TMP DP  RH WIND       PRES   REMARKS
CP ATTERBURY + CLOUDY    46  45  93 CALM      30.22R
COLUMBUS       CLOUDY    48  48 100 CALM      30.22R FOG
FRANKFORT +    MOSUNNY   57  49  75 S14       30.20S
GREENWOOD *+   PTSUNNY   48  48 100 SE5       30.22R
INDIANAPOLIS   PTSUNNY   49  47  93 SE8       30.20S FOG
-EAGLE CREEK   PTSUNNY   50  47  89 SE8       30.20R FOG
KOKOMO +       CLOUDY    51  50  96 S9        30.21S FOG
MT COMFORT *+  MOSUNNY   50  50 100 S8        30.22R
SHELBYVILLE    CLOUDY    55  46  71 SE14      30.20S
ZIONSVILLE +   CLOUDY    48  48  99 SE8       30.21S FOG

$$

INZ033-034-041-042-049-050-058-059-201700-
EAST CENTRAL INDIANA

CITY           SKY/WX    TMP DP  RH WIND       PRES   REMARKS
MUNCIE         CLOUDY    55  48  77 SE10      30.22R

$$

INZ060-061-067>069-081>083-085>088-201700-
SOUTHWEST INDIANA

CITY           SKY/WX    TMP DP  RH WIND       PRES   REMARKS
EVANSVILLE     PTSUNNY   57  50  77 SE6       30.17S
HUNTINGBURG *+ MOSUNNY   57  52  82 SE9       30.18S

$$

INZ062-063-066-070>080-084-089>092-201700-
SOUTH CENTRAL AND SOUTHEAST INDIANA

CITY           SKY/WX    TMP DP  RH WIND       PRES   REMARKS
BLOOMINGTON    CLOUDY    50  47  89 SE7       30.19R FOG
MADISON *+     CLOUDY    46  45  93 CALM      30.24R
SEYMOUR +      CLOUDY    48  48 100 SE3       30.21R FOG

$$





USA.gov is the U.S. government's official web portal to all federal, state and local government web resources and services.